CZ-4B DEB, 38316

Orbit data source: Space-Track

CZ-4B DEB, 38316 is space debris in SSO originally from a launch on Mon, 15 Aug 2011 UTC launched from the Taiyaun Space Center, China (TSC). Debris objects in space refer to the collection of defunct objects orbiting the Earth. Examples of debris include non-operational satellites, rocket bodies, and fragments generated from explosions, collisions, or faulty payload assembly.

Loading next visibility...
Identifier
38316, 2011-043F
Orbit
SSO
Country
Flag of CNCN / PRC
Related business
Manufacturer
Unknown
Mission
Spacecraft
Bus & Motor
Unknown
Mass
Unknown
Launch date (UTC)
2011-08-15 (15 years ago)
Launch vehicle
Unknown
Launch site
Taiyaun Space Center, China (TSC)
Object type
Payload
Rocket body
Debris
Shape & HBR
Unknown shape, 0.1 m
Radar Cross Section
Small (<0.1 m²)

Expand to show TLE details & history
Last TLE update: 1 week ago

TLE from 1 week ago
0 CZ-4B DEB
1 38316U 11043F   26165.78160600  .00000172  00000-0  28645-3 0  9996
2 38316  99.3714 356.0186 0228143 330.1850  46.2913 13.50161351637473
Epoch: 2026-06-14T18:45Z
TLE epoch observation values (Epoch: 2026-06-14T18:45:30.758Z)
Latitude
18.14382°
Longitude
168.47907°
Altitude
958.534 km
Speed
7.431 km/s
True Right ascension
23h 31m 44s
True Declination
18° 02' 42"
Sunlit
Object was in daylight at epoch
Visualization orbit readout
Latitude
Unknown
Longitude
Unknown
Altitude
Unknown
Speed
Unknown
Apparent Right ascension
Unknown
Apparent Declination
Unknown
Sunlit
N/A
Visualization observer readout
Local Sidereal Time
00:55:23
Azimuth
Unknown
Elevation
Unknown
Doppler factor
Unknown
Orbital elements
Apogee altitude
1,238.847 km
Perigee altitude
899.047 km
Semi-major axis
7,447.084 km
Eccentricity
0.02281
Inclination
99.3714°
RAAN
356.0186°
Arg. of periapsis
330.185°
True anomaly
48.21869°
Mean anomaly
46.2913°
Eccentric anomaly
47.2512°
Mean motion
3.37725 °/min
Orbital period
106.6 mins
BSTAR
0.00028645
Loading maneuver chart data...
Computing Atmospheric mass density...
Loading historical data...
Loading historical data...
Loading historical data...
Loading historical data...
Loading historical data...
Loading historical data...
Loading historical data...

Documentation

Showing up to 5 results
|